カタログに戻る

USA 181

運用中軍事LEO
NORAD 28537·PAYLOAD·🇺🇸 United States

打ち上げ Feb 3, 2005 から Cape Canaveral Space Force Station

Loading…

次のパス (今後24時間)

TLE

古いSource: Mike McCants

元期: Sep 5, 2026, 00:45 UTC

1 28537U 05004A   26248.03181173 0.00000000  00000-0  00000-0 0    03
2 28537  63.3938 220.8267 0565010   5.1451 354.8549 13.41279753    09

AllMySatでUSA 181をリアルタイム追跡

Download on the App Store